DW1549 Fauske NO current weather conditions

sailwx.info

Wind from 339

Air temperature 11.7° C
Dewpoint 11.2° C

Last reported at 2016-Jul-28 04:40 UTC.
Time now 2016-Jul-28 06:37 UTC

Location: N 67°16' E 015°25'.
View on Google Maps.

See reports from other nearby stations

  
Tides and Currents Weather Stations Pressure Air Temp Water Temp Dewpoint Dewpoint Depression Visibility Wind Speed Wind Dir Waves Ship Positions
date/time (UTC)wind fromknots sea level pressurealtimeterstation pressurevisibilityair tempwater tempwave heightnotes
2016-Jul-28 04:40 339 11.7
2016-Jul-28 04:30 334 11.7
2016-Jul-28 04:20 290 11.7
2016-Jul-28 04:10 290 11.1
2016-Jul-28 03:50 290 11.1
2016-Jul-28 03:30 290 10.6
2016-Jul-28 03:20 290 10.6
2016-Jul-28 03:10 290 1 gusting 5 10.0
2016-Jul-28 02:50 233 10.0
2016-Jul-28 02:30 233 10.0
2016-Jul-28 02:20 233 10.0
2016-Jul-28 02:10 233 10.6
2016-Jul-28 02:00 233 10.6
2016-Jul-28 01:40 233 10.6
2016-Jul-28 01:30 233 10.6
2016-Jul-28 01:20 233 10.6
2016-Jul-28 01:10 233 10.6
2016-Jul-28 00:40 233 10.6
2016-Jul-28 00:30 233 11.1
2016-Jul-28 00:20 233 11.1
2016-Jul-28 00:10 233 11.1
2016-Jul-28 00:00 233 11.1
2016-Jul-27 23:50 233 11.1
2016-Jul-27 23:30 233 11.1
2016-Jul-27 23:20 233 11.1
2016-Jul-27 23:10 233 11.1
2016-Jul-27 23:00 233 11.1
2016-Jul-27 22:50 233 11.1
2016-Jul-27 22:40 233 11.1
2016-Jul-27 22:30 233 11.7
2016-Jul-27 22:20 233 11.7
2016-Jul-27 22:00 233 11.7
2016-Jul-27 21:50 233 11.7
2016-Jul-27 21:40 233 11.7
2016-Jul-27 21:30 233 11.7
2016-Jul-27 21:10 233 12.2
2016-Jul-27 21:00 233 12.2
2016-Jul-27 20:50 233 12.2
2016-Jul-27 20:40 233 12.2
2016-Jul-27 20:30 233 12.8
2016-Jul-27 20:20 233 12.8
2016-Jul-27 20:00 233 13.3
2016-Jul-27 19:20 232 13.9
2016-Jul-27 19:10 232 14.4
2016-Jul-27 19:00 232 14.4
2016-Jul-27 18:50 233 14.4
2016-Jul-27 18:40 233 14.4
2016-Jul-27 18:30 233 0 gusting 4 14.4
2016-Jul-27 18:19 239 15.0
2016-Jul-27 17:49 238 15.6
2016-Jul-27 17:20 242 15.6
2016-Jul-27 17:00 228 15.6
2016-Jul-27 16:50 214 15.6
2016-Jul-27 16:40 220 0 gusting 5 15.6
2016-Jul-27 16:10 216 0 gusting 4 15.6
2016-Jul-27 16:00 214 0 gusting 6 15.6
2016-Jul-27 15:40 215 2 gusting 6 15.6
2016-Jul-27 15:30 205 1 gusting 7 16.1
2016-Jul-27 15:20 203 16.1
2016-Jul-27 15:10 203 0 gusting 4 16.1
2016-Jul-27 14:50 189 16.1
2016-Jul-27 14:40 193 0 gusting 4 16.1
2016-Jul-27 14:30 195 16.1
2016-Jul-27 14:20 199 16.1
2016-Jul-27 14:10 199 16.1
2016-Jul-27 13:40 201 15.6
2016-Jul-27 13:30 201 15.6
2016-Jul-27 13:20 201 15.6
2016-Jul-27 13:10 201 0 gusting 2 15.0
2016-Jul-27 12:50 207 15.0
2016-Jul-27 12:40 208 15.0
2016-Jul-27 12:30 208 1 gusting 5 15.0
2016-Jul-27 12:20 237 15.0
2016-Jul-27 12:00 239 14.4
2016-Jul-27 11:50 240 0 gusting 2 14.4
2016-Jul-27 11:40 252 0 gusting 2 14.4
2016-Jul-27 11:30 253 14.4
2016-Jul-27 11:20 241 14.4
2016-Jul-27 11:10 243 13.9
2016-Jul-27 11:00 237 13.9
2016-Jul-27 10:50 240 13.9
2016-Jul-27 10:40 240 13.9
2016-Jul-27 10:20 238 13.3
2016-Jul-27 10:10 238 13.3
2016-Jul-27 10:00 238 13.3
2016-Jul-27 09:30 253 0 gusting 6 13.3
2016-Jul-27 09:20 228 13.3
2016-Jul-27 09:10 245 0 gusting 6 13.3
2016-Jul-27 08:40 246 13.3
2016-Jul-27 08:30 242 0 gusting 4 13.3
2016-Jul-27 08:20 232 13.3
2016-Jul-27 08:10 241 13.3
2016-Jul-27 08:00 234 13.3
2016-Jul-27 07:50 205 0 gusting 6 13.3
2016-Jul-27 07:40 229 0 gusting 5 12.8
2016-Jul-27 07:30 031 13.3
2016-Jul-27 07:10 310 1 gusting 6 13.3
2016-Jul-27 06:50 223 0 gusting 6 13.3
2016-Jul-27 06:40 296 0 gusting 8 13.3
2016-Jul-27 06:20 252 3 gusting 8 13.3
2016-Jul-27 06:00 244 2 gusting 10 13.3
2016-Jul-27 05:50 242 4 gusting 13 13.3
2016-Jul-27 05:30 249 0 gusting 5 13.9
2016-Jul-27 05:10 260 0 gusting 4 13.9
2016-Jul-27 05:00 253 0 gusting 4 13.9
2016-Jul-27 04:30 257 14.4
2016-Jul-27 04:20 257 13.9
2016-Jul-27 04:00 234 13.9
2016-Jul-27 03:50 236 13.9
2016-Jul-27 03:40 238 0 gusting 4 13.9
2016-Jul-27 03:30 242 13.9
2016-Jul-27 03:00 243 1 gusting 4 13.9
2016-Jul-27 02:50 241 13.9
2016-Jul-27 02:40 240 13.9
2016-Jul-27 02:30 238 13.9
2016-Jul-27 02:20 243 0 gusting 5 14.4
2016-Jul-27 02:10 243 14.4
2016-Jul-27 02:00 243 14.4
2016-Jul-27 01:50 243 14.4
2016-Jul-27 01:40 240 2 gusting 6 14.4
2016-Jul-27 01:20 250 1 gusting 6 14.4
2016-Jul-27 01:10 247 0 gusting 6 14.4
2016-Jul-27 01:00 243 1 gusting 5 14.4
2016-Jul-27 00:50 272 2 gusting 5 14.4
2016-Jul-27 00:40 241 2 gusting 6 14.4
2016-Jul-27 00:30 236 1 gusting 7 14.4
2016-Jul-27 00:10 238 0 gusting 5 14.4
2016-Jul-27 00:00 036 0 gusting 2 14.4
2016-Jul-26 23:50 041 14.4
2016-Jul-26 23:40 041 14.4
2016-Jul-26 23:30 041 14.4
2016-Jul-26 23:20 041 14.4
2016-Jul-26 23:00 041 0 gusting 4 14.4
2016-Jul-26 22:50 060 15.0
2016-Jul-26 22:40 072 15.0
2016-Jul-26 22:30 072 15.0
2016-Jul-26 22:20 072 15.0
2016-Jul-26 22:00 072 15.6
2016-Jul-26 21:50 072 15.6
2016-Jul-26 21:40 055 15.6
2016-Jul-26 21:30 044 15.6
2016-Jul-26 21:20 043 0 gusting 2 15.6
2016-Jul-26 21:10 303 0 gusting 6 15.6
2016-Jul-26 21:00 235 0 gusting 8 15.6
2016-Jul-26 20:50 249 2 gusting 6 16.1
2016-Jul-26 20:30 235 16.7
2016-Jul-26 20:20 235 16.7
2016-Jul-26 20:10 235 16.7
2016-Jul-26 20:00 235 17.2
2016-Jul-26 19:50 235 17.2
2016-Jul-26 19:40 235 17.2
2016-Jul-26 19:30 235 17.2
2016-Jul-26 18:50 235 17.8
2016-Jul-26 18:40 235 17.8
2016-Jul-26 18:20 235 17.8
2016-Jul-26 18:10 235 17.8
2016-Jul-26 18:00 235 17.8
2016-Jul-26 17:20 235 17.8
2016-Jul-26 17:10 243 18.3
2016-Jul-26 17:00 243 18.3
2016-Jul-26 16:50 243 18.3
2016-Jul-26 16:40 243 18.9
2016-Jul-26 16:30 255 18.9
2016-Jul-26 16:20 255 19.4
2016-Jul-26 16:10 234 19.4
2016-Jul-26 15:50 261 1 gusting 7 20.0
2016-Jul-26 15:40 255 1 gusting 6 20.6
2016-Jul-26 15:30 222 2 gusting 5 21.1
2016-Jul-26 15:10 262 0 gusting 5 20.0
2016-Jul-26 15:00 169 1 gusting 4 20.0
2016-Jul-26 14:20 263 1 gusting 5 20.6
2016-Jul-26 14:00 260 0 gusting 5 20.6
2016-Jul-26 13:50 117 20.6
2016-Jul-26 13:40 130 20.0
2016-Jul-26 13:20 130 0 gusting 6 21.1
2016-Jul-26 13:00 259 4 gusting 11 21.7
2016-Jul-26 12:40 259 3 gusting 12 22.2
2016-Jul-26 12:30 238 5 gusting 11 22.2
2016-Jul-26 12:10 229 6 gusting 13 23.3
2016-Jul-26 11:40 130 4 gusting 8 25.0
2016-Jul-26 11:30 135 1 gusting 8 25.6
2016-Jul-26 11:20 136 0 gusting 2 24.4
2016-Jul-26 11:10 136 0 gusting 2 22.8
2016-Jul-26 11:00 136 22.2
2016-Jul-26 10:50 136 21.7
2016-Jul-26 10:40 136 22.2
2016-Jul-26 10:30 134 22.2
2016-Jul-26 10:20 134 22.8
2016-Jul-26 10:10 134 22.8
2016-Jul-26 10:00 134 23.3
2016-Jul-26 09:50 134 0 gusting 2 23.9
2016-Jul-26 09:40 134 0 gusting 6 24.4
2016-Jul-26 09:30 130 3 gusting 8 24.4
2016-Jul-26 09:10 142 5 gusting 7 24.4
2016-Jul-26 09:00 139 5 gusting 10 24.4
2016-Jul-26 08:50 142 3 gusting 8 24.4
2016-Jul-26 08:40 135 4 gusting 8 24.4
2016-Jul-26 08:30 140 1 gusting 6 23.9
2016-Jul-26 08:20 170 23.3
2016-Jul-26 08:10 170 23.3
2016-Jul-26 08:00 170 22.8
2016-Jul-26 07:50 170 1 gusting 5 22.8
2016-Jul-26 07:40 217 1 gusting 4 21.7
2016-Jul-26 07:30 217 21.7
2016-Jul-26 07:20 217 21.7
2016-Jul-26 07:10 217 21.7
2016-Jul-26 07:00 217 21.1
2016-Jul-26 06:50 217 20.0
2016-Jul-26 06:40 217 19.4
2016-Jul-26 06:30 217 18.9
2016-Jul-26 06:00 217 17.2